Temperature
18 18 18 18 17 17 17 17 17 17 17 17 17 17 17 17 17 17 17 17 17 17 17 16 16 16 16 16 16 16 16 16 16 16 16 15 15 15 15 15 15 15 15
18 18 18 18 18 17 17 17 17 17 17 17 17 17 17 17 17 17 17 17 17 17 17 16 16 16 16 16 16 16 16 16 16 16 16 16 16 15 15 15 15 15 15
18 18 18 18 18 17 17 17 17 17 17 17 17 17 17 17 17 17 17 17 17 17 17 16 16 16 16 16 16 16 16 16 16 16 16 16 16 15 15 15 15 15 15
18 18 18 18 18 17 17 17 17 17 17 17 17 17 17 17 17 17 17 17 17 17 17 17 16 16 16 16 16 16 16 16 16 16 16 16 16 15 15 15 15 15 15
18 18 18 18 18 18 17 17 17 17 17 17 17 17 17 17 17 17 17 17 17 17 17 17 16 16 16 16 16 16 16 16 16 16 16 16 16 15 15 15 15 15 15
18 18 18 18 18 18 17 17 17 17 17 17 17 17 17 17 17 17 17 17 17 17 17 17 17 16 16 16 16 16 16 16 16 16 16 16 15 15 15 15 15 15 15
18 18 18 18 18 18 18 17 17 17 17 17 17 17 17 17 17 17 17 17 17 17 17 17 17 17 16 16 16 16 16 16 16 16 16 16 15 15 15 15 15 15 15
18 18 18 18 18 18 17 17 17 17 17 17 17 17 17 17 17 17 17 17 17 17 17 17 17 17 16 16 16 16 16 16 16 16 16 15 15 15 15 15 15 15 15
18 18 18 18 18 18 18 17 17 17 17 17 17 17 17 17 17 17 17 17 17 17 17 17 17 17 16 16 16 16 16 16 16 16 15 15 15 15 15 15 15 15 15
18 18 18 17 17 17 17 17 17 17 17 17 17 17 17 17 17 17 17 17 17 17 17 17 17 17 17 17 16 16 16 16 16 15 15 15 15 15 15 15 15 15 15
18 18 17 17 17 17 17 17 17 17 17 17 17 17 17 17 17 17 17 17 17 17 17 17 17 17 17 17 16 16 16 16 16 15 15 15 15 15 15 15 15 14 14
18 17 17 17 17 17 17 17 17 17 17 17 17 17 17 17 17 17 17 17 17 17 17 17 17 17 17 16 16 16 16 16 16 16 15 15 15 15 15 15 14 14 14
18 18 17 17 17 17 17 17 17 17 17 17 17 17 17 17 17 17 17 17 17 17 17 17 17 17 17 16 16 16 16 16 16 15 15 15 15 15 15 14 14 14 14
18 18 17 17 17 17 17 17 17 17 17 17 17 17 17 17 17 17 17 17 16 16 17 17 17 17 17 16 16 16 16 16 16 15 15 15 15 15 14 14 14 14 14
18 17 17 17 17 17 17 17 17 17 17 17 17 17 17 17 17 17 17 16 16 16 16 17 17 17 16 16 16 16 16 16 15 15 15 15 15 14 14 14 14 14 13
17 17 17 17 17 17 17 17 17 17 17 17 17 17 17 17 17 16 16 16 16 16 16 16 16 16 16 16 16 16 15 15 15 15 15 15 14 14 14 14 14 13 13
17 17 17 17 17 17 17 17 17 17 17 17 16 16 17 16 16 16 16 16 16 16 16 16 16 16 15 15 15 15 15 15 15 15 14 14 14 14 14 13 13 13 13
17 17 17 17 17 17 17 17 17 17 16 16 16 16 16 16 16 16 16 16 16 16 15 15 15 15 15 15 15 15 15 15 14 14 14 14 14 13 13 13 13 12 12
17 17 17 17 17 17 17 16 17 16 16 16 16 16 16 16 16 16 16 16 16 16 15 15 15 15 15 15 14 14 14 14 14 14 14 13 13 13 13 12 12 12 12
17 17 17 17 17 17 16 16 16 16 16 16 16 16 16 16 16 16 16 16 15 15 15 15 15 15 15 14 14 14 14 14 13 13 13 13 13 12 12 12 12 11 11
17 17 17 17 17 16 16 16 16 16 16 16 16 16 16 15 15 15 15 15 15 15 15 15 15 14 14 14 14 14 13 13 13 12 12 12 12 12 11 11 11 11 10
17 17 17 17 16 16 16 16 16 16 16 16 16 16 15 15 15 15 15 15 15 15 15 14 14 14 14 14 14 13 13 13 12 12 12 11 11 11 11 11 10 10 10
17 17 17 16 16 16 16 16 16 15 15 15 15 15 15 15 15 15 15 15 15 14 14 14 14 14 14 14 13 13 13 13 12 12 11 11 11 10 10 10 10 9 9
17 17 16 16 16 16 16 15 15 15 15 15 15 15 15 15 15 14 14 14 14 14 14 14 14 14 13 13 13 13 12 12 11 11 11 11 10 10 10 10 9 9 9
16 16 16 16 16 16 15 15 15 15 15 15 14 14 14 14 14 14 14 14 14 14 13 13 13 13 13 13 12 12 12 11 11 11 10 10 10 10 9 9 9 9 8
16 16 16 16 15 15 15 15 15 15 14 14 14 14 14 13 13 13 13 13 13 13 13 13 13 13 12 12 12 12 11 11 11 10 10 10 10 9 9 9 9 8 8
Wind_Speed
3 3 2 2 2 3 3 3 3 3 3 3 3 4 5 5 6 7 8 9 10 11 11 11 11 11 11 10 10 10 9 9 9 9 8 8 8 7 7 6 6 6 5
5 4 3 2 2 3 3 3 2 2 2 2 2 3 4 5 5 6 7 8 10 11 11 11 11 11 11 11 11 10 10 10 10 9 9 9 8 8 7 7 7 6 6
7 5 3 3 3 4 3 2 2 2 2 2 1 2 2 4 5 6 7 7 8 10 11 11 11 11 11 11 11 11 10 10 10 10 10 9 9 9 8 8 7 7 7
9 6 4 4 5 4 3 2 2 2 1 1 1 1 2 3 4 6 6 7 7 8 10 11 11 11 11 11 11 11 10 10 11 10 10 10 10 10 9 9 9 9 8
9 8 5 5 5 4 3 3 2 2 2 2 1 1 1 2 4 5 6 7 8 8 9 10 12 12 12 12 12 11 11 12 12 11 11 11 10 10 10 10 10 10 9
9 8 6 6 6 3 3 2 2 2 2 2 1 0 1 2 3 4 6 6 8 9 9 9 9 10 12 13 12 13 13 13 13 12 12 12 11 11 11 11 11 10 10
9 8 5 5 5 4 5 5 3 3 2 2 2 1 1 1 3 4 4 5 6 8 8 9 9 9 9 12 13 13 13 13 13 13 12 12 13 12 12 12 12 12 11
9 8 7 5 5 4 5 5 4 3 2 3 3 1 1 2 1 3 3 4 5 6 7 9 9 10 10 9 10 12 14 14 13 13 12 12 12 13 13 13 13 12 12
9 9 8 7 6 6 6 6 6 6 4 3 3 3 3 3 1 1 2 3 4 4 5 7 8 9 10 9 9 11 13 14 13 13 12 12 12 12 13 13 12 12 12
7 8 8 8 6 5 6 7 6 5 5 4 3 3 3 3 2 1 1 2 3 4 5 5 7 8 9 9 10 11 12 12 12 12 12 12 12 13 12 12 11 11 11
5 7 7 7 6 6 6 6 6 6 5 5 4 3 3 2 2 3 3 2 1 3 4 5 5 7 9 9 10 10 12 12 12 11 11 12 12 11 12 11 10 9 9
3 5 6 6 6 6 6 7 7 7 7 6 5 4 4 3 4 4 4 3 3 3 3 3 5 6 8 8 10 11 12 12 12 11 11 10 10 10 10 10 9 9 8
3 4 4 5 5 6 6 6 6 7 7 7 7 6 6 5 3 4 3 3 3 2 2 2 4 5 6 7 8 10 11 12 11 11 11 10 10 10 10 9 8 8 7
4 3 4 5 5 6 6 5 5 6 6 7 7 6 5 5 5 4 4 3 3 2 2 4 2 4 5 6 7 8 7 10 10 11 11 10 10 10 10 9 9 8 7
4 4 4 5 5 5 5 4 4 5 5 6 6 6 5 4 5 5 4 4 4 4 4 3 2 2 4 4 5 6 7 8 10 11 11 10 10 10 9 9 8 8 7
3 3 4 5 4 4 4 5 4 4 4 5 4 5 5 4 4 4 5 5 5 5 4 2 2 2 3 3 5 5 6 8 9 9 10 10 10 10 10 10 10 9 9
4 4 4 4 4 4 4 4 4 4 4 5 4 5 5 4 4 4 4 4 4 4 5 3 2 2 3 3 3 4 4 5 6 8 9 10 10 11 11 10 10 10 10
3 4 4 4 4 4 4 5 5 5 5 5 5 4 5 4 4 4 4 5 5 5 5 5 3 3 3 3 3 3 3 4 5 6 8 9 9 10 10 10 10 10 10
3 2 3 3 4 4 4 5 5 5 5 5 5 5 5 4 4 4 4 5 4 5 4 4 4 2 2 2 2 2 3 3 4 5 7 8 9 10 10 10 10 11 11
2 2 2 3 3 3 4 4 4 4 4 4 4 4 5 5 6 5 5 5 4 4 4 4 4 3 2 2 3 3 2 2 2 3 5 6 8 9 10 11 11 11 11
2 2 2 1 1 1 2 3 3 3 3 3 3 3 4 4 5 4 4 4 4 4 4 4 4 3 4 4 5 4 4 3 2 3 3 4 5 6 7 8 9 10 11
1 1 1 1 1 2 2 3 3 3 3 3 3 2 2 2 3 3 4 4 5 5 5 5 4 5 6 5 4 5 4 4 3 4 4 3 4 4 5 7 9 10 11
1 1 1 1 1 1 1 1 2 2 2 2 2 1 1 1 1 1 1 1 1 2 4 5 6 6 5 6 7 7 6 5 4 4 5 4 3 4 5 7 10 11 11
1 1 1 0 0 1 0 0 0 0 0 1 1 1 1 0 1 0 0 1 1 2 2 3 4 4 4 5 7 6 6 4 2 2 3 3 3 3 3 6 10 12 12
2 1 1 1 0 1 1 0 1 1 1 1 1 0 1 0 1 1 1 0 1 2 2 2 0 1 4 6 7 5 5 5 3 3 3 3 3 3 2 3 7 11 12
2 1 1 0 0 1 1 1 2 1 1 0 0 0 1 1 1 1 1 1 1 1 0 1 2 2 3 5 7 6 6 6 3 3 4 4 4 4 3 2 4 7 8
Wind_Direction
177 168 163 157 140 126 124 120 118 113 117 131 152 159 164 169 176 179 186 192 192 187 186 186 188 190 188 187 185 185 186 187 186 186 190 191 190 190 191 191 187 188 187
186 179 179 179 181 166 151 146 137 123 128 140 155 165 173 175 181 185 192 200 201 197 195 196 200 201 198 197 196 196 197 198 196 198 199 198 197 198 200 199 199 199 198
194 187 184 191 199 183 162 140 124 114 126 137 144 176 184 184 185 191 197 203 206 207 208 209 209 210 209 207 206 205 205 204 203 204 203 203 204 203 204 205 205 206 206
198 190 190 202 202 182 168 153 139 125 133 149 173 204 199 199 201 200 202 206 209 213 216 217 217 217 217 216 213 211 209 208 207 207 208 209 211 212 211 211 213 214 214
200 194 198 205 194 179 178 185 157 150 166 185 202 211 213 213 214 209 209 212 212 215 219 226 226 225 224 222 220 218 215 214 213 211 213 215 216 218 220 219 219 221 220
203 199 203 202 183 173 182 179 160 153 165 178 189 213 246 241 223 218 220 218 219 222 224 227 228 229 228 228 228 226 224 221 218 217 218 218 219 221 225 224 224 224 224
203 200 203 193 185 190 197 181 161 165 176 147 123 37 331 259 236 235 226 221 226 227 226 227 228 226 229 232 233 232 230 228 223 219 220 222 222 221 224 225 226 228 229
206 206 199 194 191 192 194 185 167 162 182 170 156 137 315 325 283 238 223 223 228 226 226 228 226 226 227 228 233 232 232 231 226 222 220 222 223 223 225 227 229 231 230
211 208 202 201 197 193 200 198 187 180 194 198 185 163 175 232 287 297 237 227 223 222 230 229 227 227 225 224 228 232 234 235 233 228 224 223 225 225 226 228 228 228 228
220 214 208 205 206 202 204 205 199 192 183 198 203 209 197 173 187 276 294 243 227 227 231 230 230 229 225 224 226 228 231 231 232 232 230 226 225 224 225 225 227 229 226
226 218 212 207 207 209 212 210 199 199 195 197 196 188 194 197 200 207 253 266 251 235 229 228 229 228 227 224 225 226 225 226 229 229 229 226 225 225 224 222 224 226 224
232 222 215 210 212 212 216 214 209 206 207 207 207 196 186 188 199 200 225 241 250 251 232 228 224 227 228 226 226 224 222 223 226 226 225 222 220 220 217 212 217 217 212
233 232 221 213 214 215 215 210 211 216 209 210 212 212 210 214 195 188 201 228 244 258 241 232 225 223 226 224 226 224 219 217 220 220 217 215 213 212 207 205 204 205 198
237 237 229 224 223 219 218 208 211 216 212 216 221 214 215 222 209 200 193 194 237 259 240 235 224 216 219 218 221 215 208 206 208 206 201 197 198 198 200 199 198 195 188
239 234 232 231 226 218 213 204 215 222 215 218 223 219 220 224 217 217 210 200 204 241 256 226 216 208 201 203 213 203 200 200 200 198 195 191 190 190 191 189 183 178 175
239 240 239 232 226 221 212 205 211 218 221 228 220 218 225 228 221 218 217 217 213 220 245 234 225 221 196 196 198 198 200 196 197 192 188 186 185 184 182 179 174 172 170
236 238 235 228 225 223 214 206 210 208 217 228 225 221 229 226 224 220 212 212 214 211 237 257 233 216 203 196 181 188 194 190 186 184 185 184 180 174 171 172 172 171 171
236 234 231 229 231 229 216 211 216 214 217 227 233 229 237 232 228 227 219 220 219 212 219 240 242 223 216 194 180 178 174 172 168 171 174 173 171 169 169 170 171 170 169
236 236 233 231 236 231 222 222 219 219 221 224 224 227 236 230 239 235 230 229 226 222 216 218 234 219 209 182 170 170 155 148 153 156 160 167 170 170 170 168 167 166 164
227 239 241 238 235 232 225 222 218 219 224 226 225 228 234 230 235 237 235 230 224 220 214 213 220 207 200 186 174 182 179 175 173 159 153 161 167 167 164 161 163 163 162
223 227 237 252 248 238 236 217 216 219 223 236 245 244 245 243 243 239 240 230 215 216 212 216 217 206 202 191 198 188 194 177 182 171 157 164 164 165 169 170 170 169 167
211 201 222 230 257 271 262 213 203 212 212 223 248 266 270 259 261 254 250 237 219 214 215 215 220 216 215 205 193 187 185 183 206 187 181 193 176 180 182 181 179 176 172
185 204 223 213 256 302 304 242 207 207 213 230 244 266 292 314 14 353 342 339 270 243 223 220 223 223 212 200 188 193 196 197 205 175 171 192 182 191 193 186 178 177 176
191 213 227 220 330 323 328 211 197 176 230 276 261 227 220 282 29 53 43 22 359 340 293 243 234 230 213 190 191 193 189 172 120 141 164 183 182 193 184 185 183 180 178
195 191 162 125 228 323 351 7 125 105 68 4 348 52 138 141 16 87 119 117 347 347 31 50 90 172 172 169 162 157 160 168 186 189 184 177 168 169 172 186 185 182 181
192 180 163 182 229 297 308 165 147 144 170 256 302 25 103 98 45 82 162 202 252 286 355 50 57 75 131 153 162 175 178 181 180 189 183 173 162 158 167 182 180 178 180
Height
1573 1574 1575 1576 1577 1578 1579 1580 1581 1582 1583 1584 1585 1586 1587 1588 1589 1589 1590 1591 1591 1592 1593 1594 1595 1596 1597 1598 1598 1599 1600 1601 1602 1603 1603 1604 1605 1605 1606 1606 1607 1607 1607
1573 1574 1575 1576 1577 1578 1580 1581 1582 1583 1584 1585 1585 1586 1587 1588 1589 1590 1590 1591 1591 1592 1593 1594 1595 1595 1596 1597 1598 1599 1600 1600 1601 1602 1603 1603 1604 1605 1605 1606 1606 1606 1607
1574 1575 1576 1577 1578 1579 1580 1581 1582 1583 1584 1585 1586 1586 1587 1588 1589 1589 1590 1591 1591 1592 1593 1593 1594 1595 1596 1597 1597 1598 1599 1600 1600 1601 1602 1602 1603 1604 1604 1605 1605 1605 1605
1574 1575 1576 1577 1578 1579 1580 1581 1582 1583 1584 1584 1585 1586 1587 1587 1588 1589 1589 1590 1591 1591 1592 1592 1593 1594 1595 1595 1596 1597 1598 1599 1599 1600 1600 1601 1602 1602 1603 1603 1604 1604 1604
1573 1574 1576 1577 1578 1578 1579 1581 1582 1582 1583 1584 1585 1586 1586 1587 1587 1588 1588 1589 1589 1590 1591 1591 1592 1593 1593 1594 1595 1596 1596 1597 1598 1598 1599 1599 1600 1600 1601 1601 1602 1602 1602
1572 1573 1575 1576 1577 1578 1579 1580 1581 1582 1583 1583 1584 1584 1585 1585 1586 1586 1587 1587 1588 1589 1589 1590 1590 1591 1591 1592 1593 1594 1594 1595 1596 1596 1597 1597 1598 1598 1599 1599 1599 1600 1600
1571 1572 1573 1575 1576 1577 1578 1579 1580 1581 1581 1582 1583 1583 1583 1583 1584 1584 1585 1585 1586 1587 1587 1588 1588 1589 1590 1590 1591 1592 1592 1593 1593 1594 1595 1595 1596 1596 1596 1597 1597 1597 1597
1569 1570 1572 1573 1574 1575 1576 1578 1578 1579 1580 1581 1581 1581 1581 1582 1581 1582 1583 1583 1584 1584 1585 1585 1586 1587 1588 1588 1589 1589 1590 1590 1591 1591 1592 1592 1593 1593 1593 1594 1594 1594 1595
1567 1568 1570 1571 1572 1573 1574 1575 1576 1577 1578 1579 1580 1581 1580 1579 1580 1580 1580 1581 1581 1582 1582 1583 1583 1584 1585 1585 1586 1587 1587 1587 1588 1588 1589 1589 1590 1590 1590 1591 1591 1591 1591
1564 1566 1567 1568 1569 1571 1572 1573 1574 1575 1576 1576 1577 1578 1579 1578 1579 1578 1578 1578 1579 1579 1580 1580 1581 1581 1582 1582 1583 1583 1584 1584 1585 1585 1586 1586 1586 1587 1587 1587 1588 1588 1588
1561 1562 1564 1565 1566 1567 1569 1570 1571 1572 1573 1574 1574 1575 1575 1576 1576 1576 1575 1575 1576 1576 1577 1577 1577 1578 1579 1579 1580 1580 1581 1581 1582 1582 1582 1583 1583 1583 1584 1584 1584 1584 1584
1558 1559 1560 1561 1562 1564 1565 1566 1568 1568 1569 1570 1571 1571 1572 1572 1572 1572 1572 1572 1572 1573 1573 1573 1574 1574 1575 1575 1576 1577 1577 1578 1578 1578 1579 1579 1579 1580 1580 1580 1581 1581 1581
1555 1556 1557 1557 1559 1560 1561 1563 1564 1564 1566 1566 1567 1567 1568 1568 1569 1569 1569 1569 1569 1569 1569 1569 1570 1571 1571 1572 1572 1573 1573 1574 1574 1575 1575 1575 1576 1576 1577 1577 1577 1577 1578
1552 1553 1553 1554 1555 1556 1557 1559 1559 1560 1561 1562 1563 1563 1564 1565 1565 1566 1566 1566 1565 1565 1565 1565 1566 1566 1567 1568 1568 1569 1569 1570 1570 1571 1572 1572 1572 1573 1573 1573 1574 1574 1575
1548 1549 1550 1550 1551 1552 1553 1555 1555 1556 1557 1558 1559 1560 1560 1561 1561 1562 1562 1562 1563 1561 1560 1561 1562 1562 1563 1564 1564 1565 1565 1566 1566 1567 1568 1568 1569 1569 1570 1570 1570 1571 1571
1546 1546 1547 1547 1548 1548 1549 1551 1551 1552 1553 1554 1555 1555 1556 1556 1557 1557 1558 1558 1558 1558 1557 1556 1557 1558 1559 1559 1560 1560 1561 1561 1562 1563 1563 1564 1565 1565 1566 1566 1567 1567 1568
1543 1543 1543 1544 1544 1545 1546 1547 1548 1548 1549 1550 1551 1551 1552 1552 1553 1553 1553 1553 1553 1554 1553 1552 1553 1554 1554 1555 1556 1556 1557 1557 1558 1559 1559 1560 1561 1561 1562 1562 1563 1563 1564
1540 1540 1540 1541 1541 1542 1542 1543 1544 1545 1545 1546 1547 1547 1548 1548 1548 1549 1549 1549 1549 1549 1549 1548 1548 1549 1549 1550 1551 1552 1552 1553 1553 1554 1555 1556 1556 1557 1558 1558 1559 1559 1560
1538 1538 1538 1538 1538 1538 1539 1540 1540 1541 1542 1542 1543 1543 1543 1544 1544 1544 1544 1544 1544 1544 1544 1544 1543 1544 1545 1545 1546 1547 1548 1548 1549 1550 1550 1551 1552 1553 1553 1554 1555 1555 1556
1536 1536 1536 1536 1536 1536 1536 1537 1537 1537 1538 1538 1539 1539 1539 1539 1539 1539 1539 1539 1539 1539 1539 1539 1539 1539 1539 1540 1541 1542 1542 1543 1544 1545 1546 1547 1548 1549 1550 1550 1551 1552 1552
1534 1534 1534 1534 1534 1534 1534 1534 1534 1534 1534 1535 1535 1535 1535 1535 1535 1535 1535 1535 1535 1534 1534 1534 1534 1534 1534 1535 1536 1537 1538 1538 1539 1541 1542 1543 1544 1544 1545 1546 1547 1548 1549
1532 1532 1532 1532 1531 1531 1531 1531 1531 1531 1531 1531 1531 1531 1531 1531 1531 1531 1530 1530 1530 1530 1529 1529 1529 1529 1529 1530 1531 1532 1533 1534 1534 1536 1537 1538 1540 1540 1541 1542 1544 1545 1546
1530 1530 1530 1530 1530 1529 1529 1529 1529 1528 1528 1528 1528 1528 1527 1527 1526 1526 1526 1525 1525 1525 1525 1525 1524 1524 1525 1525 1526 1527 1528 1529 1530 1531 1533 1534 1535 1536 1537 1538 1540 1541 1543
1528 1528 1528 1528 1527 1527 1527 1526 1526 1526 1525 1525 1525 1525 1524 1523 1523 1523 1522 1522 1521 1521 1521 1520 1520 1520 1520 1521 1521 1522 1523 1524 1526 1527 1529 1529 1531 1532 1534 1535 1536 1538 1540
1526 1526 1526 1525 1524 1525 1525 1524 1523 1523 1522 1522 1522 1521 1521 1521 1520 1520 1519 1519 1518 1518 1517 1517 1517 1516 1516 1516 1517 1518 1518 1520 1520 1522 1524 1525 1526 1528 1530 1531 1532 1534 1536
1523 1523 1523 1523 1522 1522 1522 1521 1521 1520 1520 1519 1519 1519 1518 1518 1517 1517 1516 1516 1515 1514 1514 1513 1513 1513 1513 1513 1513 1514 1514 1516 1516 1518 1519 1521 1522 1524 1526 1527 1528 1530 1532